Location: Chippewa Lake
(41.0698°N, 81.9010°W)
Time: 19:48:06
(UTC+00:00)

USA 281 - Pass Details

Date: 09 May 2021
Orbit: 1078 x 1081 km, 106.0° (Epoch: 14 June)

Event Time Altitude Azimuth Distance (km) Brightness Sun altitude
Exits shadow 05:43:34 24° 99° (E) 2,071 4.6 -31.3°
Maximum altitude 05:46:30 35° 55° (NE) 1,679 4.4 -31.3°
Drops below altitude 10° 05:52:18 10° 353° (N) 2,928 6.3 -31.1°
Sets 05:55:02 0° 345° (NNW) 3,888 7.1 -31.1°
